STARLINK-11507, 62519

Orbit data source: Space-Track

STARLINK-11507, 62519 is a payload satellite owned by SpaceX/Seattle (US) in LEO that was launched on Wed, 08 Jan 2025 UTC via an FALCON 9 launch vehicle from the Air Force Eastern Test Range (AFETR). Payload-class satellites include a variety of spacecraft equipped with specific instruments for various scientific and technological missions. These include communications satellites like Starlink; space stations such as the ISS; scientific satellites like the Hubble; Earth observation satellites from companies like Planet Labs, Umbra, and HawkEye 360; GPS; miniature CubeSats for education and research; and military/defense satellites.

Loading next visibility...
Identifier
62519, 2025-004J
Orbit
LEO
Last TLE update
5 hours ago
Origin
Manufacturer
SpaceX/Seattle
Mission
Operational Commercial Communications
Bus & Motor
STARLINK V2M, Unknown motor
Mass
730 kg wet, ~700 kg dry
Launch date (UTC)
2025-01-08 (6 months ago)
Launch vehicle
FALCON 9
Launch site
Air Force Eastern Test Range (AFETR)
Object type
Payload
Rocket body
Debris
Shape & HBR
Box + 2 Pan, 29 m
Radar Cross Section
36.964 m², Large (>1 m²)

Expand to show TLE details & history

TLE from 5 hours ago
0 STARLINK-11507
1 62519U 25004J   25182.19590832  .00175450  00000-0  13407-2 0  9998
2 62519  42.9997 146.7783 0001619 267.3142  92.7540 15.70865717 28401
Epoch: 2025-07-01T04:42Z
TLE epoch observation values (Epoch: 2025-07-01T04:42:06.478Z)
Latitude
-0.00006°
Longitude
156.75641°
Altitude
356.245 km
Speed
7.697 km/s
True Right ascension
09h 47m 06s
True Declination
0° 00' 00"
Sunlit
Object was in daylight at epoch
Visualization orbit readout
Latitude
41.5946°
Longitude
-95.69212°
Altitude
360.045 km
Speed
7.699 km/s
Apparent Right ascension
13h 14m 39s
Apparent Declination
4° 00' 41"
Sunlit
Object is in full shadow
Visualization observer readout
Local Sidereal Time
21:21:31
Azimuth
294.694° NW
Elevation
-20.939°
Doppler factor
1
Orbital elements
Apogee altitude
359.494 km
Perigee altitude
357.313 km
Semi-major axis
6,736.54 km
Eccentricity
0.00016
Inclination
42.9997°
RAAN
146.7783°
Arg. of periapsis
267.3142°
True anomaly
Unknown
Mean anomaly
92.754°
Eccentric anomaly
Unknown
Mean motion
3.92544 °/min
Orbital period
91.71 mins
BSTAR
0.0013407
Loading maneuver chart data...
Loading SW <> Apogee altitude chart data...
Loading historical data...
Loading historical data...
Loading historical data...
Loading historical data...
Loading historical data...
Loading historical data...
Loading historical data...

STARLINK-11507 Visibility forecast

Observer location: undefined°, undefined°

Span
Click to sort rows by Start time (UTC) header in descending order
Start Az.
Max El. time (UTC)
Max El. Az.
Max El.
End time (UTC)
End Az.
4 mins2025-07-02 00:45:12.083Z196.349° SSW2025-07-02 00:47:12.083Z133.789° SE23.038°2025-07-02 00:49:12.083Z91.255° ESE
4 mins2025-07-02 02:21:12.083Z267.949° W2025-07-02 02:23:12.083Z41.063° NE38.619°2025-07-02 02:25:12.083Z68.287° E
4 mins2025-07-02 03:57:12.083Z297.015° NW2025-07-02 03:59:12.083Z16.294° NNE34.246°2025-07-02 04:01:12.083Z72.977° E
|